Regional Weather Roundup
Issued by NWS

Home | Current Version | Previous Version | Text Only | Print | Product List | Glossary Off
Versions: 1 2 3 4 5 6 7 8 9 10 11 12 13 14 15 16 17 18 19 20 21 22 23 24 25 26 27

000
ASUS45 KTFX 292210
RWRMT
MONTANA REGIONAL WEATHER ROUNDUP
NATIONAL WEATHER SERVICE GREAT FALLS MT
400 PM MDT WED MAR 29 2017

NOTE: "FAIR" INDICATES FEW OR NO CLOUDS BELOW 12000 FEET WITH NO
SIGNIFICANT WEATHER AND/OR OBSTRUCTIONS TO VISIBILITY.

MTZ001>007-043-292300-
WEST OF THE DIVIDE

CITY           SKY/WX    TMP DP  RH WIND       PRES   REMARKS
KALISPELL      LGT RAIN  45  42  89 S9        29.90F FOG
MISSOULA       CLOUDY    49  40  71 SE6       29.93F
BUTTE          CLOUDY    52  31  44 SW8G21    29.92F
MULLAN PASS    SNOW      34  32  92 VRB3      29.88F VSB 1/4
ANACONDA         N/A     52  30  43 SW9G22    29.90F
DEER LODGE       N/A     55  34  44 S10G17    29.89S
EUREKA           N/A     46  37  71 SE14G20   29.85F
HAMILTON         N/A     52  39  62 S16G22    29.94R
PLAINS           N/A     50  39  65 CALM      29.92F
RONAN            N/A     50  39  65 S6        29.95F
$$

MTZ008-052>055-292300-
SOUTHWEST MONTANA

CITY           SKY/WX    TMP DP  RH WIND       PRES   REMARKS
BOZEMAN        CLOUDY    56  34  43 MISG      29.92F
DILLON         CLOUDY    55  30  38 SW20      29.94F
W YELLOWSTONE  MIX PCPN  36  28  75 SW14G20   30.10F WCI  27
ENNIS          CLOUDY    50  28  43 S26G39    30.03S
THREE FORKS      N/A     60  60 100 SW14      29.91F
TWIN BRIDGES     N/A     58  30  34 S20       29.93F
$$

MTZ009-010-012-014-046-048-049-054-292300-
EAST SLOPES AND CENTRAL MONTANA

CITY           SKY/WX    TMP DP  RH WIND       PRES   REMARKS
CUT BANK       CLOUDY    53  30  41 SW14      29.79F
GREAT FALLS    MOSUNNY   55  33  43 SW21      29.83F
MALMSTROM AFB  MOSUNNY   55  33  42 SW17G26   29.84F
HELENA         CLOUDY    56  35  45 S8        29.87F
AUGUSTA        PTSUNNY   51  30  43 SW18G28   29.81F
BOWMANS CRNR   PTSUNNY   49  33  53 SW30      29.81F
CHOTEAU          N/A     55  30  38 SW15G24   29.80F
CONRAD           N/A     56  42  59 SE9       29.83F
FAIRFIELD        N/A     56  31  38 SW22G30   29.80F
POWER            N/A     54  32  42 S18G26    29.81F
RAYNESFORD     PTSUNNY   52  32  46 SW15G28   29.86F
$$

MTZ011-013-016-021-045-047-050-051-292300-
NORTH CENTRAL MONTANA

CITY           SKY/WX    TMP DP  RH WIND       PRES   REMARKS
HAVRE          MOSUNNY   59  29  31 SW9G21    29.82F
LEWISTOWN      CLOUDY    57  27  31 SW20G32   29.87F
N BAR RANCH    PTSUNNY   57  25  28 SW17G24   29.89F
CHINOOK          N/A     59  28  31 SW10      29.83F
DENTON         PTSUNNY   55  27  33 SW9       29.82F
FORT BENTON      N/A     55  34  44 MISG      29.84F
GEYSER         PTSUNNY   54  30  39 SW12G21   29.85F
GRASS RANGE    PTSUNNY   55  27  33 NE5       29.84F
JUDITH GAP     CLOUDY    54  30  41 W22G32    29.89F
STANFORD         N/A     53  30  40 SW15      29.87F
WINIFRED       PTSUNNY   56  27  32 W9        29.85F
$$

MTZ017>020-022>027-061-062-292300-
NORTHEAST MONTANA

CITY           SKY/WX    TMP DP  RH WIND       PRES   REMARKS
GLASGOW        MOSUNNY   60  26  27 SW14      29.88F
JORDAN           N/A     59  29  31 SW10G21   29.90F
SIDNEY         SUNNY     62  29  28 W13       29.89F
WOLF POINT     PTSUNNY   61  29  29 W14G20    29.89F
MALTA          MOSUNNY   59  27  29 SW12      29.86F
PLENTYWOOD       N/A     59  25  27 W15G25    29.86F
POPLAR           N/A     59  28  31 W14       29.89F
SCOBEY           N/A     60  26  27 SW14      29.86F
$$

MTZ028>42-056>058-292300-
SOUTHCENTRAL AND SOUTHEAST MONTANA

CITY           SKY/WX    TMP DP  RH WIND       PRES   REMARKS
BAKER          SUNNY     58  29  33 W16       29.93F
BILLINGS       PTSUNNY   59  32  36 E3        29.89F
LIVINGSTON     CLOUDY    55  31  39 SW25G37   29.91F
MILES CITY     CLOUDY    57  27  31 W8        29.93F
BIG TIMBER     SUNNY     55  30  38 W23       29.92F
EKALAKA          N/A     58  28  32 W10       29.93F
FORSYTH          N/A     57  28  33 W5        29.92F
HARLOWTON      PTSUNNY   56  29  35 W12G17    29.89F
LAUREL           N/A     62  29  29 S10       29.89F
$$

REGIONAL REPORTS...DAKOTAS

CITY           SKY/WX    TMP DP  RH WIND       PRES   REMARKS
WILLISTON      SUNNY     62  29  28 W13       29.89F
MINOT          CLOUDY    61  38  42 S13       29.89F
DICKINSON      PTSUNNY   60  30  32 S13       29.89F
BEACH            N/A     59  27  29 NW14      29.95F
TIOGA          PTSUNNY   57  34  41 W12G21    29.90S
WATFORD CITY     N/A     61  32  33 W9G23     29.89F
BISMARCK       MOSUNNY   63  37  38 S16       29.96F
GRAND FORKS    CLOUDY    60  46  59 S15       30.02F
FARGO          CLOUDY    60  39  45 S18       30.06F
BUFFALO SD       N/A     62  27  26 NW8       29.87F
RAPID CITY     PTSUNNY   56  37  49 NE9       29.97F
$$

REGIONAL REPORTS...WYOMING/IDAHO/WASHINGTON

CITY           SKY/WX    TMP DP  RH WIND       PRES   REMARKS
GILLETTE       SUNNY     57  25  29 CALM      29.96F
SHERIDAN       CLOUDY    60  31  33 VRB3      29.93F
BUFFALO WY     CLOUDY    58  26  29 E14       29.95F
CODY           SUNNY     59  25  27 W15       29.94F
YELLOWSTONE LA   N/A     36  25  64 VRB5G17   30.11F
IDAHO FALLS    CLOUDY    52  33  48 S14G23    30.11F
SALMON         CLOUDY    52  36  54 N8        29.97R
BOISE          CLOUDY    60  36  40 E12       30.04F
SPOKANE        CLOUDY    49  45  86 SW14G20   29.86F
$$

REGIONAL REPORTS...ALBERTA

CITY           SKY/WX    TMP DP  RH WIND       PRES   REMARKS
EDMONTON       PTSUNNY   46  41  81 NE7       29.74F FOG
CALGARY        CLOUDY    52  27  37 S14G21    29.71F
LETHBRIDGE     PTSUNNY   54  30  40 SW13G20   29.75F
MEDICINE HAT   CLOUDY    57  27  30 SW13      29.78F
WATERTON GATE    N/A     50  30  46 SW20G28     N/A
MILK RIVER       N/A     54  30  40 SW17G23     N/A
$$

REGIONAL REPORTS...SASKATCHEWAN

CITY           SKY/WX    TMP DP  RH WIND       PRES   REMARKS
SWIFT CURRENT  SUNNY     57  19  23 W16       29.79F
REGINA         PTSUNNY   59  30  33 W15       29.81R
SASKATOON      MOSUNNY   52  37  58 NW8       29.81S
CYPRESS HILLS    N/A     50  23  34 SW12        N/A
VAL MARIE        N/A     57  25  28 W13         N/A
ROCKGLEN         N/A     55  23  28 W21G28      N/A
ASSINIBOIA       N/A     39  37  93 E5          N/A
$$




USA.gov is the U.S. government's official web portal to all federal, state and local government web resources and services.